Temp
14 14 14 14 13 11 9 7 9 6 7 7 7 8 9 9 10 10 11 11 13 12 12 13 14 14 13 13 13 13 12 13 13 14 16 17 16 15 13 11 11 11 11 11
13 14 13 13 11 10 8 6 5 5 6 8 7 7 7 8 9 9 9 10 11 10 11 10 12 11 12 12 12 12 12 12 11 15 17 16 15 14 14 13 13 11 10 12
13 13 12 12 11 9 8 5 6 4 6 4 8 8 8 8 8 8 9 8 8 9 10 11 10 10 11 11 12 9 10 11 10 11 13 13 12 13 13 12 10 11 12 12
12 12 12 10 9 8 8 6 6 6 5 5 6 8 8 9 8 8 8 8 10 10 9 10 10 11 8 10 11 10 10 9 10 11 12 12 11 11 12 12 12 11 12 13
11 10 8 6 6 7 5 4 5 4 5 6 6 7 8 9 8 8 8 9 11 10 9 10 10 11 11 10 11 11 11 9 10 8 10 10 10 12 12 12 13 13 13 11
7 6 5 6 6 7 3 3 3 6 5 6 7 7 8 9 8 7 10 11 9 10 11 12 12 11 11 11 10 10 11 9 8 8 10 11 10 11 13 12 13 12 9 12
5 5 5 6 6 6 4 4 4 5 7 7 7 8 7 8 8 9 11 11 10 11 10 10 10 10 10 10 10 11 9 9 9 8 9 7 12 15 13 11 12 13 11 9
5 5 5 5 5 6 6 5 6 7 8 9 9 9 9 10 11 10 10 10 11 10 9 7 8 9 10 10 11 11 11 10 9 8 9 10 12 13 9 9 10 8 5 7
5 4 4 4 5 5 6 6 7 10 9 11 12 11 11 11 10 10 9 9 9 9 8 7 6 8 10 10 11 13 12 10 8 8 7 7 11 13 10 11 10 6 5 5
4 3 3 4 5 5 6 5 5 10 8 10 10 11 10 11 11 10 10 8 7 8 7 6 7 8 10 8 9 10 10 10 7 7 6 8 12 10 10 8 7 4 4 4
2 3 3 4 4 5 6 3 4 8 9 9 8 8 9 9 10 8 9 8 7 7 6 7 8 8 10 8 9 9 9 8 8 8 6 6 10 9 6 5 5 5 4 4
2 2 3 3 4 4 5 5 4 5 9 8 6 7 8 9 9 9 8 8 8 8 7 8 8 7 8 8 7 10 8 8 7 7 7 8 10 7 7 6 4 4 4 4
2 3 3 3 4 4 5 5 5 7 8 8 8 8 7 6 7 7 8 9 9 8 9 7 7 6 9 7 7 7 9 10 8 8 9 9 8 8 7 5 4 5 5 7
2 2 3 3 3 4 5 5 5 7 8 7 8 6 7 6 6 6 7 8 8 8 8 7 6 6 8 7 7 7 8 9 8 7 8 8 8 6 5 4 6 5 8 7
2 2 2 3 3 3 4 4 4 4 7 6 8 7 6 6 6 6 6 7 7 8 7 6 6 7 7 8 8 7 9 8 7 7 8 7 7 7 5 5 5 6 7 7
2 2 2 2 3 4 6 4 4 4 4 6 7 8 7 6 6 6 6 7 7 7 7 6 8 8 6 5 7 9 10 9 9 8 9 8 7 6 6 5 6 7 7 6
2 2 2 2 3 4 6 6 4 3 4 5 6 8 7 6 6 6 6 6 7 7 5 5 6 7 4 5 5 8 9 10 8 6 5 5 6 5 7 6 7 7 7 6
2 2 2 2 3 3 4 3 2 2 5 7 6 7 8 6 6 4 5 4 4 4 5 5 5 6 5 5 8 9 9 7 5 6 4 4 5 6 6 6 6 6 6 6
1 2 2 3 3 6 4 2 1 3 4 5 6 6 6 6 5 4 3 3 3 6 4 5 6 6 5 8 9 9 5 5 5 6 6 6 5 5 5 5 5 5 4 4
2 2 4 2 3 2 1 1 3 4 4 5 6 7 6 6 5 5 5 5 5 5 7 7 6 7 9 10 9 8 7 5 5 4 4 5 4 4 4 4 4 4 4 4
4 5 4 3 1 2 3 3 3 4 4 6 7 7 6 6 5 5 6 6 6 6 6 6 7 8 5 8 7 7 6 4 5 5 4 4 4 4 4 4 4 4 4 4
4 4 2 2 3 3 3 4 5 6 8 8 8 7 6 6 6 5 6 6 6 6 6 6 8 8 8 8 7 6 5 5 5 5 5 4 5 4 5 5 5 4 4 3
3 4 3 3 3 3 3 4 6 6 7 7 6 5 6 4 4 5 6 5 6 9 6 8 8 8 7 6 5 5 5 5 5 5 4 4 5 5 4 4 3 1 1 -0
3 3 2 3 3 5 7 8 8 7 7 7 6 5 6 7 5 6 5 8 8 7 8 8 5 5 4 5 4 5 5 5 4 5 4 4 2 1 0 -0 -0 -0 -1 -1
3 4 3 4 6 6 6 6 6 7 7 7 6 6 6 5 5 6 7 6 6 8 7 5 4 3 3 3 2 3 3 2 2 2 2 0 0 0 0 -0 -0 0 -0 -0
4 4 3 5 4 4 4 4 5 7 7 7 6 5 5 5 7 7 6 8 8 6 5 5 5 4 4 3 2 1 1 1 2 2 2 2 0 0 1 1 1 0 1 0
4 4 4 3 3 3 4 4 6 7 6 5 6 5 6 7 6 7 8 6 3 3 3 4 3 3 2 1 0 -1 -1 1 1 1 1 0 0 1 2 3 1 0 1 1
Height
736 738 741 743 744 747 752 760 768 777 780 789 790 783 777 776 772 776 776 776 766 768 770 767 763 756 764 770 771 769 776 768 757 746 738 735 739 741 752 757 756 756 752 729
726 728 732 734 737 737 746 761 773 777 778 775 780 782 779 778 777 775 777 773 772 775 771 776 764 768 775 775 773 774 774 767 765 731 724 731 735 744 747 750 750 750 752 714
715 718 723 726 728 736 744 756 769 780 777 777 768 771 772 774 775 773 774 778 782 779 773 769 772 774 775 774 774 785 786 776 772 759 741 748 751 747 748 750 751 742 728 719
709 713 717 719 724 731 736 749 755 756 770 770 768 766 766 766 769 774 776 776 769 769 777 771 770 768 782 780 777 783 780 776 769 759 755 755 753 751 748 741 733 732 721 710
704 709 713 717 720 727 737 749 754 763 763 759 765 766 762 761 766 769 768 767 762 769 775 767 769 764 768 771 769 771 771 772 770 771 763 758 750 742 734 726 717 709 708 717
704 709 713 718 729 731 739 751 751 750 759 758 759 756 754 755 764 770 763 760 767 767 763 761 764 766 766 765 768 767 765 768 775 766 753 747 745 733 716 715 710 712 726 708
704 713 713 721 729 733 737 745 751 752 752 755 754 754 758 756 761 762 758 761 762 765 772 772 772 769 765 761 759 761 763 761 763 764 753 759 722 707 713 721 716 711 717 725
708 714 721 728 733 736 739 747 752 751 746 745 751 751 752 753 753 757 759 762 764 771 775 780 774 759 754 749 748 750 752 755 756 756 743 729 719 710 731 730 723 733 743 732
712 715 727 731 736 740 746 749 750 747 744 739 739 742 743 745 751 757 762 767 773 774 774 781 781 758 737 738 734 733 738 745 756 751 753 745 717 712 729 722 712 738 742 733
717 721 727 731 740 745 748 752 750 750 752 749 750 744 746 745 748 753 758 771 775 772 776 776 765 751 743 751 742 736 733 736 752 747 748 735 717 730 727 728 729 735 738 731
723 725 733 736 740 745 747 753 753 752 750 757 762 760 756 755 755 759 764 772 770 769 776 769 758 752 739 746 741 737 741 743 743 742 748 746 731 730 745 746 742 740 734 728
727 733 737 740 743 747 751 754 757 758 756 760 765 764 764 761 762 760 767 765 765 766 767 761 760 757 753 748 750 736 743 741 747 748 742 737 732 742 743 742 743 736 732 723
737 736 740 746 749 751 754 756 759 759 758 759 761 761 765 766 766 767 766 764 765 766 766 766 763 762 752 752 745 743 737 735 737 738 730 729 732 734 737 742 739 731 724 716
741 745 746 749 753 755 757 760 761 761 760 758 758 765 766 768 768 769 769 769 770 770 766 766 765 763 754 752 747 743 738 736 737 736 735 734 734 739 742 738 731 727 718 713
747 749 752 754 756 757 761 763 764 766 765 760 756 763 764 766 769 770 769 772 771 766 764 766 766 757 755 746 743 738 729 732 735 733 733 737 733 734 736 733 728 721 716 712
753 753 757 760 758 760 763 766 768 769 769 767 754 761 761 764 769 768 768 769 770 767 764 763 756 755 760 754 737 725 725 726 727 727 726 728 731 731 730 728 723 719 714 713
757 758 762 762 761 763 762 762 770 769 770 770 761 750 761 765 766 765 766 768 766 765 768 765 760 755 761 751 740 727 723 722 729 733 734 729 726 727 725 723 720 717 713 712
760 762 764 764 765 768 768 771 772 771 770 767 762 754 755 764 760 764 765 768 769 770 766 759 754 750 752 741 723 721 723 729 733 731 732 729 728 725 725 723 720 716 713 710
764 767 769 770 771 766 770 772 772 772 774 766 762 755 757 764 762 765 768 768 764 757 759 752 750 739 736 722 720 720 729 731 731 730 727 728 728 727 725 724 721 718 715 713
770 772 771 773 773 774 774 774 773 772 772 770 761 757 759 763 760 759 761 758 751 742 736 738 738 725 716 714 716 721 726 730 732 731 729 729 728 728 726 724 721 718 716 713
771 769 770 774 775 774 773 772 770 769 766 760 755 755 759 759 760 755 752 748 741 736 730 731 718 706 721 719 723 725 729 733 732 732 731 731 730 728 726 723 720 717 715 712
769 770 773 774 773 772 773 763 761 757 746 748 750 754 756 757 759 758 748 745 739 731 731 729 710 708 712 719 724 728 731 732 732 731 730 730 728 727 724 720 718 716 715 713
771 771 772 772 772 771 767 762 749 750 750 752 755 758 756 760 760 753 746 743 732 720 725 708 705 712 720 725 730 729 730 731 730 730 729 729 726 723 723 721 721 721 719 717
770 771 770 767 765 759 748 743 744 751 752 753 753 756 753 748 750 746 742 725 720 720 708 700 717 724 728 729 732 729 728 729 729 728 728 727 728 728 727 725 724 721 719 716
770 767 763 760 752 752 753 754 754 752 751 752 752 750 751 748 746 737 728 725 717 702 704 721 727 729 732 733 734 732 731 732 731 730 729 729 729 727 724 723 721 719 717 714
767 764 762 755 758 756 758 758 754 750 750 750 750 750 748 741 732 726 721 710 704 715 723 724 725 727 729 731 734 735 735 734 731 728 727 726 726 724 720 718 716 715 713 710
762 759 758 760 759 757 755 755 750 748 748 750 744 747 738 729 725 717 709 719 732 734 732 730 730 730 732 735 736 736 736 733 730 728 727 725 723 721 716 712 713 713 710 707
Wind_Speed
40 36 36 35 37 30 32 7 3 15 23 3 3 4 5 3 5 2 5 5 11 4 3 4 6 4 1 4 0 1 3 6 13 20 21 21 18 16 4 5 6 9 12 17
37 35 35 26 27 34 16 3 3 1 6 5 4 2 3 5 6 7 7 8 5 2 6 5 9 4 7 4 1 1 5 3 10 13 8 3 8 9 10 15 16 22 16 18
33 29 26 23 22 33 15 4 4 0 2 1 3 6 5 6 10 4 4 3 4 6 8 7 3 4 7 5 3 5 0 9 12 13 17 15 20 22 19 19 12 18 20 28
23 24 22 21 32 36 14 1 2 3 5 5 4 8 7 7 7 4 6 4 12 10 4 5 7 9 6 10 9 7 7 14 15 19 19 19 21 23 23 24 24 23 22 28
17 15 28 41 40 31 6 4 4 1 3 7 11 9 7 9 4 8 6 6 9 8 6 8 6 9 10 10 9 12 14 16 13 16 17 20 23 21 25 25 24 23 18 21
32 38 34 30 24 15 6 2 4 3 6 5 5 5 6 9 10 2 5 8 6 10 13 9 8 9 10 12 12 14 14 12 11 18 17 19 17 19 21 16 16 16 15 23
35 29 29 23 17 7 11 5 4 3 3 3 4 6 4 9 9 3 7 10 11 3 3 4 10 14 16 17 18 17 18 17 12 14 17 20 20 13 5 13 14 16 18 17
27 23 18 14 12 11 13 12 4 2 3 6 7 8 10 11 8 9 8 6 2 4 1 4 8 11 16 19 20 20 19 16 14 14 16 20 22 9 5 13 19 10 14 20
25 23 18 14 13 16 11 7 1 1 2 6 6 10 9 9 8 9 6 5 4 4 3 4 6 5 10 5 5 12 15 15 12 15 16 18 16 8 4 15 16 15 19 21
24 22 19 17 13 11 7 5 5 1 1 3 2 7 7 8 6 5 8 8 6 5 4 8 11 12 12 10 15 14 11 11 14 13 13 12 19 11 12 8 9 24 21 21
24 22 17 15 14 12 6 6 6 3 2 4 4 3 1 2 4 5 5 6 4 5 6 7 9 9 11 5 14 13 13 10 12 13 16 22 12 13 6 8 16 21 20 19
24 21 18 14 11 10 8 6 5 4 2 5 1 0 2 4 5 3 7 5 3 5 4 4 4 7 6 12 11 13 12 10 10 10 7 20 13 5 10 14 15 15 16 18
22 22 19 16 14 13 12 11 6 3 2 4 5 3 5 5 5 5 4 5 6 4 6 4 4 9 8 10 10 14 13 11 11 15 17 13 18 19 15 13 14 19 15 16
22 20 19 18 16 15 10 10 7 2 0 1 4 4 2 1 7 10 11 10 3 5 4 6 6 8 8 11 13 12 12 12 15 15 15 16 15 11 14 18 19 17 16 16
19 17 16 15 15 16 13 11 9 8 4 1 2 4 4 2 5 9 9 11 9 6 6 5 8 9 9 10 12 11 12 13 9 10 14 11 18 17 20 16 15 13 14 15
17 14 12 10 11 8 4 3 8 7 7 2 1 4 3 3 4 6 9 10 8 8 6 6 7 12 6 5 8 12 10 6 8 11 12 10 14 19 16 12 12 12 12 11
15 14 11 10 9 4 3 4 6 4 3 1 2 3 4 2 2 3 4 7 5 5 3 7 11 10 4 5 13 16 12 7 10 13 14 13 6 5 10 11 11 14 13 11
14 12 10 10 10 7 7 5 5 3 3 2 1 0 4 1 2 2 2 3 3 3 5 4 6 5 4 5 9 4 5 5 6 9 6 3 4 7 9 10 11 11 11 13
14 11 10 4 5 2 6 2 1 3 2 1 1 2 3 2 2 2 3 3 5 4 6 5 4 5 7 9 9 8 3 2 7 9 6 3 6 7 8 9 10 11 12 13
14 6 2 1 4 4 2 1 1 1 0 1 2 1 2 1 2 2 2 4 3 3 6 3 4 8 16 11 8 6 5 5 5 5 5 7 7 8 9 10 10 10 10 12
4 2 1 4 4 3 1 0 1 2 3 4 2 3 4 1 3 2 3 2 2 3 3 3 4 3 4 5 2 4 4 3 3 4 5 5 6 8 9 10 11 10 13 12
3 5 5 2 2 1 1 1 1 3 1 3 2 2 2 1 2 3 3 3 2 5 5 3 3 3 8 6 3 4 2 1 2 3 5 7 8 9 9 10 10 15 17 16
2 1 2 2 1 2 2 4 2 1 3 1 2 4 2 2 3 4 3 4 5 1 3 3 2 8 7 6 2 1 1 2 4 5 6 8 10 11 13 12 15 16 15 16
1 1 2 3 3 4 2 2 2 3 2 3 3 3 2 2 3 4 4 5 3 4 4 2 6 8 5 2 1 4 4 3 6 8 8 7 10 10 11 9 11 11 11 15
2 2 3 5 5 2 2 3 3 4 4 4 4 4 3 3 4 4 5 3 5 4 2 3 3 5 3 2 2 4 5 3 5 7 6 4 6 9 10 10 12 11 13 14
2 4 3 3 3 4 3 4 6 5 4 4 3 3 3 5 4 4 6 4 3 3 3 4 1 2 1 3 5 5 6 7 8 9 9 9 7 9 12 12 11 11 15 13
3 3 4 5 5 6 5 5 6 3 4 3 3 3 6 3 4 4 3 3 3 6 7 7 7 5 4 3 3 4 6 9 9 9 10 11 11 13 13 9 12 15 16 14
Wind_Direction
256 256 258 257 255 226 174 136 176 154 148 140 180 208 208 167 189 167 223 262 264 249 211 245 254 250 54 104 101 253 67 303 281 286 281 270 271 281 318 274 289 281 290 271
252 256 257 255 244 212 154 104 87 15 183 200 196 201 207 201 191 196 196 219 254 258 212 226 234 176 127 137 150 164 23 269 307 303 158 199 185 194 299 296 286 269 276 277
250 255 248 245 224 188 145 128 137 256 237 40 219 165 190 195 210 202 189 144 155 199 211 225 213 171 180 181 220 115 269 251 244 259 287 309 291 291 292 282 271 276 269 287
246 244 242 224 189 178 141 57 165 166 183 218 189 178 186 171 177 200 172 192 215 202 181 215 228 221 184 225 231 228 239 259 260 270 282 286 282 282 281 273 274 269 278 277
241 225 166 159 169 167 87 136 147 62 147 149 171 184 197 186 156 167 181 233 192 209 218 221 255 249 227 243 251 230 231 260 271 273 278 275 275 279 279 282 273 269 289 297
145 145 147 153 160 163 96 81 39 100 158 163 167 197 178 185 150 228 206 208 220 226 240 263 270 269 261 253 248 255 252 253 253 267 283 288 275 269 275 299 311 310 301 313
140 146 148 152 162 152 114 132 119 125 152 181 177 160 138 151 179 182 216 219 212 86 67 289 265 257 255 252 248 245 248 245 248 256 272 267 269 278 288 295 294 308 331 330
140 136 134 136 121 104 124 129 128 168 141 181 184 188 194 200 198 218 192 198 45 107 272 281 273 253 242 241 240 239 235 245 256 256 259 272 288 319 0 317 304 40 342 327
133 131 127 119 110 107 117 120 301 252 156 211 184 188 186 187 196 179 211 71 147 196 231 224 247 263 290 274 245 216 222 214 235 251 272 271 285 314 323 304 296 8 340 326
124 120 115 120 131 135 131 74 28 297 292 69 234 198 208 217 214 225 176 165 202 217 222 246 258 267 269 257 265 262 256 233 241 252 259 281 301 11 319 284 318 331 322 309
118 119 125 126 126 130 135 86 40 350 218 92 326 12 240 126 229 201 134 172 224 183 235 258 275 260 265 289 259 281 282 281 273 273 273 270 354 338 358 331 307 303 300 296
114 114 114 115 114 120 114 100 60 42 9 60 140 297 310 340 348 270 158 260 139 206 232 246 277 278 280 282 278 278 272 267 283 283 276 296 316 0 305 320 297 303 298 299
114 111 107 98 98 106 105 103 95 120 115 162 192 184 185 211 220 241 218 231 263 239 292 305 275 278 285 275 275 291 279 266 265 274 281 304 317 316 324 305 294 298 302 319
118 114 110 104 98 96 93 87 60 60 286 244 116 124 135 176 221 229 240 287 310 299 224 240 255 272 283 285 284 277 271 276 273 272 278 296 298 286 303 303 300 311 317 325
124 121 117 109 103 97 93 81 61 45 345 354 54 143 89 195 230 225 228 238 242 243 244 244 262 277 289 276 277 270 267 270 262 277 291 285 283 294 292 308 301 316 329 332
130 124 123 118 103 103 129 65 60 37 9 358 265 90 140 140 194 225 232 230 238 247 258 273 265 269 264 278 275 293 318 294 281 274 285 288 281 284 304 290 311 320 326 327
132 130 132 118 92 22 42 52 80 47 21 236 265 159 127 196 242 200 211 209 223 244 240 245 260 272 216 254 268 275 267 289 348 336 307 282 304 301 321 315 327 323 331 349
134 133 120 105 101 101 105 94 75 33 298 248 307 34 185 46 279 248 169 199 203 221 246 259 256 262 218 260 265 278 306 288 277 287 314 344 294 322 329 331 331 331 336 341
128 117 109 124 242 234 68 196 172 19 356 296 109 311 31 141 258 275 188 202 212 206 216 228 235 227 223 245 266 278 89 269 299 316 323 336 338 336 340 337 341 341 342 342
130 165 160 328 48 101 131 160 141 29 93 233 253 63 327 278 240 233 246 201 247 227 215 167 228 254 246 261 301 336 7 9 335 330 353 349 349 349 339 338 335 334 337 334
223 165 112 87 140 238 327 102 265 135 205 198 240 333 315 256 280 301 230 270 242 257 170 235 220 245 166 148 125 98 63 51 13 3 4 356 347 336 338 340 340 339 336 338
60 96 118 169 230 176 291 196 102 238 24 145 288 7 316 262 230 257 236 256 240 258 142 238 249 103 130 145 104 90 65 42 329 336 340 343 339 338 333 332 341 352 337 349
192 184 107 226 115 232 237 171 209 191 144 175 299 313 301 162 232 253 257 236 237 212 227 237 58 120 96 85 72 302 218 264 302 316 322 322 325 337 349 339 345 344 344 335
207 190 206 231 165 245 231 302 49 70 284 335 312 291 256 269 228 234 248 238 253 248 236 291 82 82 83 84 33 293 287 307 314 313 319 344 343 329 325 326 334 330 330 327
234 218 239 218 248 277 297 321 289 264 274 283 278 267 226 249 249 242 251 243 243 240 3 59 59 88 60 42 327 310 322 1 325 325 324 323 312 314 309 315 314 319 323 326
237 231 260 256 266 251 241 259 260 264 260 271 270 253 263 240 231 231 233 261 283 45 26 3 337 227 306 353 356 2 344 319 306 309 319 321 338 309 319 304 292 327 316 306
238 234 265 279 281 267 258 253 256 275 281 248 248 235 237 306 255 258 289 354 25 358 353 355 17 40 51 27 20 16 333 307 314 318 320 315 314 313 308 313 343 323 316 321